Marrakech, Morocco

5:37 AM WET on May 28, 2017 (GMT +0000)
Marrakech

Weather History for GMMX - October, 2011

Change the Weather History Date:

Friday, October 14, 2011

  Actual Average Record
Temperature  
Mean Temperature 78 °F -  
Max Temperature 95 °F 76 °F 95 °F (2011)
Min Temperature 62 °F 54 °F 50 °F (2000)
Cooling Degree Days 14    
Growing Degree Days 28 (Base 50)    
Moisture  
Dew Point 51 °F    
Average Humidity 42    
Maximum Humidity 77    
Minimum Humidity 8    
Precipitation  
Precipitation 0.00 in 0.04 in - ()
Sea Level Pressure  
Sea Level Pressure 30.04 in    
Wind  
Wind Speed 5 mph ()    
Max Wind Speed 23 mph    
Max Gust Speed 36 mph    
Visibility 3.8 miles    
Events      
Averages and records for this station are not official NWS values.
T = Trace of Precipitation, MM = Missing Value Source: Averaged Metar Reports

Daily Weather History Graph

Daily Weather History Graph

Search for Another Location

Airport or City:

Trip Planner

Search our weather history database for the weather conditions in past years. The results will help you decide how hot, cold, wet, or windy it might be!

Date:

Astronomy

Oct. 14, 2011 Rise Set
Actual Time 6:34 AM WET 6:01 PM WET
Civil Twilight 6:09 AM WET 6:26 PM WET
Nautical Twilight 5:41 AM WET 6:54 PM WET
Astronomical Twilight 5:13 AM WET 7:22 PM WET
Moon 7:19 PM WET (10/14) 8:38 AM WET (10/14)
Length of Visible Light 12h 16m
Length of Day
11h 27m
Waning Gibbous, 95% of the Moon is Illuminated
Oct 14
Waning Gibbous
Oct 20
Last Quarter
Oct 26
New
Nov 2
First Quarter
Nov 10
Full

Hourly Weather History & Observations

Time (WET) Temp. Heat Index Dew Point Humidity Pressure Visibility Wind Dir Wind Speed Gust Speed Precip Events Conditions
12:00 AM 72 °F - 57 °F 49% 30.04 in 4 mi SW 6.9 mph - -   Partly Cloudy
12:00 AM 73.4 °F - 57.2 °F 57% 30.09 in 3.7 mi SW 5.8 mph - N/A   Scattered Clouds
12:30 AM 71.6 °F - 55.4 °F 57% 30.09 in 4.3 mi SW 6.9 mph - N/A   Partly Cloudy
1:00 AM 71.6 °F - 55.4 °F 57% 30.09 in 4.3 mi SW 5.8 mph - N/A   Partly Cloudy
1:30 AM 71.6 °F - 57.2 °F 60% 30.06 in 4.3 mi SW 5.8 mph - N/A   Partly Cloudy
2:00 AM 71.6 °F - 57.2 °F 60% 30.06 in 4.3 mi SW 5.8 mph - N/A   Partly Cloudy
2:30 AM 68.0 °F - 57.2 °F 68% 30.06 in 4.3 mi West 2.3 mph - N/A   Partly Cloudy
3:00 AM 66 °F - 56 °F 61% 30.02 in 4 mi West 3.5 mph - -   Scattered Clouds
3:00 AM 66.2 °F - 55.4 °F 68% 30.06 in 4.3 mi West 2.3 mph - N/A   Partly Cloudy
3:30 AM 66.2 °F - 55.4 °F 68% 30.06 in 4.3 mi WSW 3.5 mph - N/A   Partly Cloudy
4:00 AM 62.6 °F - 55.4 °F 77% 30.04 in 3.7 mi WSW 5.8 mph - N/A   Partly Cloudy
4:30 AM 64.4 °F - 55.4 °F 73% 30.06 in 3.7 mi WNW 3.5 mph - N/A   Scattered Clouds
5:00 AM 66.2 °F - 55.4 °F 68% 30.06 in 4.3 mi West 3.5 mph - N/A   Scattered Clouds
5:30 AM 66.2 °F - 55.4 °F 68% 30.06 in 4.3 mi SW 3.5 mph - N/A   Scattered Clouds
6:00 AM 66.2 °F - 55.4 °F 68% - 4.3 mi SW 5.8 mph - N/A   Scattered Clouds
6:30 AM 66.2 °F - 53.6 °F 64% 30.06 in 3.7 mi Variable 2.3 mph - N/A   Scattered Clouds
7:00 AM 64.4 °F - 53.6 °F 68% 30.06 in 3.7 mi West 1.2 mph - N/A   Scattered Clouds
7:30 AM 68.0 °F - 57.2 °F 68% 30.06 in 3.1 mi WSW 3.5 mph - N/A   Scattered Clouds
8:00 AM 71.6 °F - 57.2 °F 60% 30.06 in 3.1 mi SW 3.5 mph - N/A   Scattered Clouds
8:30 AM 73.4 °F - 57.2 °F 57% 30.09 in 3.7 mi SW 5.8 mph - N/A   Partly Cloudy
8:45 AM 75 °F - 58 °F 45% 30.02 in 4 mi SSW 4.6 mph - -   Scattered Clouds
9:00 AM - - - N/A% - 3.7 mi SSW 4.6 mph - N/A   Partly Cloudy
9:30 AM 78.8 °F - 57.2 °F 47% 30.09 in 3.1 mi South 3.5 mph - N/A   Partly Cloudy
10:30 AM 84.2 °F 83.5 °F 57.2 °F 40% 30.09 in 3.7 mi Variable 3.5 mph - N/A   Partly Cloudy
11:00 AM 86.0 °F 84.5 °F 55.4 °F 35% 30.06 in 3.7 mi NNW 4.6 mph - N/A   Partly Cloudy
11:30 AM 87.8 °F 85.7 °F 53.6 °F 31% 30.06 in 3.7 mi NW 4.6 mph - N/A   Partly Cloudy
12:00 PM 87.8 °F 86.1 °F 55.4 °F 33% 30.06 in 3.7 mi NNW 5.8 mph - N/A   Partly Cloudy
12:30 PM 89.6 °F - 50.0 °F 26% 30.04 in 4.3 mi NNW 6.9 mph - N/A   Partly Cloudy
1:00 PM 89.6 °F - 50.0 °F 26% 30.04 in 4.3 mi NNW 6.9 mph - N/A   Partly Cloudy
1:30 PM 91.4 °F - 46.4 °F 21% 30.01 in 5.0 mi NNW 8.1 mph - N/A   Scattered Clouds
2:00 PM 93.2 °F - 42.8 °F 17% 30.01 in 5.0 mi NNW 8.1 mph - N/A   Scattered Clouds
2:30 PM 93.2 °F - 44.6 °F 19% 30.01 in 5.0 mi NNW 5.8 mph - N/A   Partly Cloudy
3:00 PM 95 °F - 40 °F 8% 29.88 in 5 mi NW 3.5 mph - -   Partly Cloudy
3:00 PM 95.0 °F - 41.0 °F 15% 30.01 in 5.0 mi NNW 4.6 mph - N/A   Partly Cloudy
3:30 PM 95.0 °F - 44.6 °F 18% 30.01 in 4.3 mi NW 6.9 mph - N/A   Partly Cloudy
4:00 PM 93.2 °F - 44.6 °F 19% 30.01 in 4.3 mi NNE 4.6 mph - N/A   Partly Cloudy
4:30 PM 95.0 °F - 42.8 °F 16% 30.01 in 4.3 mi Variable 2.3 mph - N/A   Partly Cloudy
5:00 PM 95.0 °F - 42.8 °F 16% 30.01 in 4.3 mi Variable 2.3 mph - N/A   Partly Cloudy
5:29 PM 89.6 °F - 44.6 °F 21% 30.01 in 1.2 mi ESE 11.5 mph - N/A   Sand
5:30 PM 89.6 °F - 44.6 °F 21% 30.01 in 3.7 mi SE 11.5 mph - N/A   Partly Cloudy
5:34 PM 87.8 °F - 44.6 °F 22% 30.01 in 0.7 mi East 18.4 mph 35.7 mph N/A   Sand
6:00 PM 85 °F - 44 °F 15% 29.92 in 1 mi 23.0 mph - -   Blowing Sand
6:00 PM 86.0 °F - 44.6 °F 23% 30.01 in - North - - N/A   Sand
6:16 PM 84.2 °F - 44.6 °F 25% 30.01 in - North - - N/A   Partly Cloudy
7:00 PM 82.4 °F - 42.8 °F 25% 30.01 in - North - - N/A   Partly Cloudy
7:30 PM 82.4 °F - 42.8 °F 25% 30.04 in - North - - N/A   Partly Cloudy
8:00 PM 82.4 °F - 42.8 °F 25% 30.04 in - North - - N/A   Partly Cloudy
8:30 PM 82.4 °F - 41.0 °F 23% 30.04 in 3.1 mi SSE 6.9 mph - N/A   Partly Cloudy
9:00 PM 80 °F - 43 °F 17% 29.97 in 3 mi SSE 5.8 mph - -   Mostly Cloudy
9:00 PM 80.6 °F - 42.8 °F 26% 30.04 in 3.1 mi SSE 6.9 mph - N/A   Partly Cloudy
9:30 PM 77.0 °F - 42.8 °F 29% 30.06 in 3.1 mi West 8.1 mph - N/A   Partly Cloudy
10:00 PM 73.4 °F - 60.8 °F 65% 30.06 in 3.1 mi West 8.1 mph - N/A   Partly Cloudy
10:30 PM 73.4 °F - 62.6 °F 69% 30.06 in 3.1 mi WSW 6.9 mph - N/A   Partly Cloudy
11:00 PM 71.6 °F - 62.6 °F 73% 30.06 in 3.1 mi West 3.5 mph - N/A   Partly Cloudy